Tracking 19795 objects as of 17-Jul-2019
HD Live streaming from Space Station
objects crossing your sky now

FLOCK 3P 18

Track FLOCK 3P 18 now!
10-day predictions
FLOCK 3P 18 is classified as:


NORAD ID: 41957
Int'l Code: 2017-008K
Perigee: 485.9 km
Apogee: 499.0 km
Inclination: 97.4 °
Period: 94.3 minutes
Semi major axis: 6863 km
RCS: Unknown
Launch date: February 15, 2017
Source: United States (US)
Launch site: SRIHARIKOTA (SRI)
aabbcc
Your satellite tracking list
Your tracking list is empty




NASA's NSSDC Master Catalog

Two Line Element Set (TLE):
1 41957U 17008K   19198.18732092  .00001727  00000-0  68221-4 0  9992
2 41957  97.4021 265.2655 0009583  46.5473 313.6561 15.26832177134180
Source of the keplerian elements: AFSPC